Tracking 29924 objects as of 4-Dec-2024
HD Live streaming from Space Station
objects crossing your sky now

STARLINK-2322

Track STARLINK-2322 now!
10-day predictions
STARLINK-2322 is classified as:


NORAD ID: 47791
Int'l Code: 2021-018E
Perigee: 553.2 km
Apogee: 555.4 km
Inclination: 53.1 °
Period: 95.6 minutes
Semi major axis: 6925 km
RCS: Unknown
Launch date: March 11, 2021
Source: United States (US)
Launch site: AIR FORCE EASTERN TEST RANGE (AFETR)
Your satellite tracking list
Your tracking list is empty




NASA's NSSDC Master Catalog

Two Line Element Set (TLE):
1 47791U 21018E   24338.71144436  .00005040  00000-0  35696-3 0  9991
2 47791  53.0511 161.0286 0001587  87.4800 272.6370 15.06402918207122
Source of the keplerian elements: AFSPC